HAZ5502 ZYTL-ZSPD

Flight info

Callsign HAZ5502
Flight time 1h 36m
Altitude 33100
Route KAR09D KARPI W5 TAO W174 XDX DCT MABEB DCT GURIL DCT RUXEL W178 OSIKI W166 ZJ W167 SASAN R343 EKIMU
Aircraft A339/H-SADE1E2E3GHIJ3J5M1P2RWXY/LB2D1

Departure

Time 2026-04-30 05:27
Airport Dalian Zhoushuizi International Airport (ZYTL)

Arrival

Time 2026-04-30 07:03
Airport Shanghai Pudong International Airport (ZSPD)
Time Latitude Longitude Altitude Speed Heading
2026-04-30 04:55 38.96257 121.53395 123 ft 0 kts 182°
2026-04-30 05:15 38.96260 121.53395 123 ft 1 kts 182°
2026-04-30 05:15 38.96275 121.53396 123 ft 2 kts 182°
2026-04-30 05:15 38.96289 121.53397 123 ft 2 kts 182°
2026-04-30 05:15 38.96304 121.53397 123 ft 2 kts 182°
2026-04-30 05:16 38.96320 121.53398 123 ft 2 kts 182°
2026-04-30 05:16 38.96334 121.53398 123 ft 2 kts 182°
2026-04-30 05:16 38.96350 121.53399 123 ft 2 kts 182°
2026-04-30 05:16 38.96365 121.53400 123 ft 2 kts 182°
2026-04-30 05:17 38.96380 121.53402 123 ft 2 kts 197°
2026-04-30 05:17 38.96393 121.53409 123 ft 2 kts 212°
2026-04-30 05:17 38.96405 121.53420 123 ft 2 kts 226°
2026-04-30 05:17 38.96414 121.53436 123 ft 2 kts 241°
2026-04-30 05:18 38.96420 121.53453 123 ft 2 kts 256°
2026-04-30 05:18 38.96423 121.53472 123 ft 2 kts 270°
2026-04-30 05:18 38.96422 121.53481 123 ft 1 kts 277°
2026-04-30 05:18 38.96422 121.53484 123 ft 0 kts 276°
2026-04-30 05:22 38.96423 121.53466 123 ft 4 kts 276°
2026-04-30 05:22 38.96428 121.53412 123 ft 8 kts 276°
2026-04-30 05:22 38.96431 121.53323 123 ft 11 kts 269°
2026-04-30 05:22 38.96423 121.53210 123 ft 14 kts 268°
2026-04-30 05:23 38.96430 121.53076 123 ft 16 kts 276°
2026-04-30 05:23 38.96441 121.52921 123 ft 18 kts 275°
2026-04-30 05:23 38.96455 121.52753 123 ft 19 kts 276°
2026-04-30 05:23 38.96468 121.52576 123 ft 19 kts 276°
2026-04-30 05:24 38.96481 121.52401 123 ft 19 kts 276°
2026-04-30 05:24 38.96495 121.52224 123 ft 19 kts 276°
2026-04-30 05:24 38.96508 121.52062 123 ft 13 kts 275°
2026-04-30 05:24 38.96521 121.51978 123 ft 8 kts 307°
2026-04-30 05:25 38.96563 121.51959 123 ft 8 kts 357°
2026-04-30 05:25 38.96629 121.51963 123 ft 10 kts
2026-04-30 05:25 38.96698 121.51992 123 ft 10 kts 51°
2026-04-30 05:25 38.96705 121.52068 123 ft 0 kts 95°
2026-04-30 05:26 38.96704 121.52071 123 ft 1 kts 96°
2026-04-30 05:26 38.96687 121.52303 123 ft 59 kts 96°
2026-04-30 05:26 38.96625 121.53100 123 ft 118 kts 95°
2026-04-30 05:27 38.96530 121.54372 167 ft 162 kts 99°
2026-04-30 05:27 38.96418 121.55845 610 ft 170 kts 99°
2026-04-30 05:27 38.96286 121.57361 1160 ft 176 kts 99°
2026-04-30 05:27 38.96162 121.58701 1723 ft 175 kts 98°
2026-04-30 05:28 38.96028 121.60253 2268 ft 180 kts 98°
2026-04-30 05:28 38.95887 121.61914 2643 ft 196 kts 97°
2026-04-30 05:28 38.95737 121.63718 3007 ft 213 kts 97°
2026-04-30 05:28 38.95573 121.65709 3367 ft 232 kts 96°
2026-04-30 05:29 38.95399 121.67841 3797 ft 248 kts 96°
2026-04-30 05:29 38.95222 121.70035 4484 ft 253 kts 93°
2026-04-30 05:29 38.95487 121.72223 5208 ft 252 kts 60°
2026-04-30 05:29 38.96619 121.73862 6018 ft 248 kts 30°
2026-04-30 05:30 38.98222 121.74579 6700 ft 246 kts
2026-04-30 05:30 38.99928 121.74763 7425 ft 248 kts
2026-04-30 05:30 39.01646 121.74597 8082 ft 251 kts 342°
2026-04-30 05:30 39.03153 121.73475 8824 ft 255 kts 317°
2026-04-30 05:31 39.04160 121.71579 9255 ft 270 kts 291°
2026-04-30 05:31 39.04479 121.69129 9690 ft 286 kts 277°
2026-04-30 05:31 39.04636 121.66566 10365 ft 292 kts 277°
2026-04-30 05:31 39.04814 121.63924 10662 ft 307 kts 277°
2026-04-30 05:32 39.05020 121.61111 10973 ft 325 kts 277°
2026-04-30 05:32 39.05151 121.58147 11259 ft 343 kts 267°
2026-04-30 05:32 39.04465 121.55140 11659 ft 359 kts 242°
2026-04-30 05:32 39.02903 121.52660 12326 ft 364 kts 220°
2026-04-30 05:33 39.00702 121.50987 13041 ft 366 kts 205°
2026-04-30 05:33 38.98417 121.49589 13714 ft 370 kts 205°
2026-04-30 05:33 38.96087 121.48146 14375 ft 375 kts 205°
2026-04-30 05:33 38.93725 121.46658 15028 ft 380 kts 206°
2026-04-30 05:34 38.91344 121.45139 15687 ft 384 kts 206°
2026-04-30 05:34 38.88968 121.43614 16319 ft 389 kts 206°
2026-04-30 05:34 38.86512 121.42040 17011 ft 393 kts 205°
2026-04-30 05:34 38.84080 121.40488 17730 ft 398 kts 205°
2026-04-30 05:35 38.81590 121.38899 18305 ft 403 kts 205°
2026-04-30 05:35 38.79081 121.37299 18937 ft 407 kts 205°
2026-04-30 05:35 38.76527 121.35667 19551 ft 411 kts 205°
2026-04-30 05:35 38.73964 121.34032 20164 ft 415 kts 204°
2026-04-30 05:36 38.71363 121.32375 20767 ft 419 kts 204°
2026-04-30 05:36 38.68734 121.30699 21347 ft 423 kts 204°
2026-04-30 05:36 38.66095 121.29018 21884 ft 426 kts 204°
2026-04-30 05:36 38.63428 121.27322 22392 ft 430 kts 204°
2026-04-30 05:37 38.60740 121.25613 22907 ft 433 kts 204°
2026-04-30 05:37 38.58035 121.23895 23448 ft 436 kts 204°
2026-04-30 05:37 38.55449 121.21913 23886 ft 442 kts 214°
2026-04-30 05:37 38.53106 121.19315 24325 ft 448 kts 225°
2026-04-30 05:38 38.51120 121.16266 24778 ft 451 kts 232°
2026-04-30 05:38 38.49237 121.13039 25236 ft 454 kts 233°
2026-04-30 05:38 38.47381 121.09807 25643 ft 457 kts 233°
2026-04-30 05:38 38.45496 121.06539 26032 ft 461 kts 233°
2026-04-30 05:39 38.43588 121.03256 26431 ft 464 kts 233°
2026-04-30 05:39 38.41649 120.99937 26823 ft 467 kts 233°
2026-04-30 05:39 38.39706 120.96632 27206 ft 470 kts 233°
2026-04-30 05:39 38.37749 120.93308 27572 ft 472 kts 233°
2026-04-30 05:40 38.35746 120.89910 27902 ft 476 kts 233°
2026-04-30 05:40 38.33754 120.86537 28249 ft 479 kts 233°
2026-04-30 05:40 38.31756 120.83154 28601 ft 481 kts 233°
2026-04-30 05:40 38.29745 120.79757 28952 ft 484 kts 233°
2026-04-30 05:41 38.27650 120.76382 29261 ft 486 kts 229°
2026-04-30 05:41 38.25270 120.73319 29542 ft 490 kts 221°
2026-04-30 05:41 38.22590 120.70621 29880 ft 491 kts 214°
2026-04-30 05:41 38.19684 120.68362 30180 ft 492 kts 207°
2026-04-30 05:42 38.16623 120.66419 30476 ft 493 kts 205°
2026-04-30 05:42 38.13557 120.64553 30751 ft 494 kts 205°
2026-04-30 05:42 38.10459 120.62672 31059 ft 494 kts 204°
2026-04-30 05:42 38.07284 120.60934 31499 ft 491 kts 201°
2026-04-30 05:43 38.04100 120.59485 31935 ft 487 kts 198°
2026-04-30 05:43 38.00869 120.58305 32382 ft 483 kts 194°
2026-04-30 05:43 37.97581 120.57392 32707 ft 482 kts 190°
2026-04-30 05:43 37.94312 120.56762 33002 ft 482 kts 187°
2026-04-30 05:44 37.87601 120.56136 33067 ft 484 kts 183°
2026-04-30 05:44 37.80866 120.55650 33086 ft 484 kts 184°
2026-04-30 05:45 37.74164 120.55148 33078 ft 484 kts 184°
2026-04-30 05:45 37.67421 120.54636 33070 ft 485 kts 184°
2026-04-30 05:46 37.60748 120.53793 33066 ft 484 kts 188°
2026-04-30 05:46 37.54031 120.52792 33052 ft 484 kts 188°
2026-04-30 05:47 37.47375 120.51797 33080 ft 483 kts 188°
2026-04-30 05:47 37.40698 120.50802 33082 ft 483 kts 188°
2026-04-30 05:48 37.34027 120.49810 33077 ft 483 kts 188°
2026-04-30 05:48 37.27383 120.48823 33079 ft 480 kts 188°
2026-04-30 05:49 37.20748 120.47837 33074 ft 481 kts 188°
2026-04-30 05:49 37.14143 120.46860 33066 ft 479 kts 189°
2026-04-30 05:50 37.07512 120.45877 33062 ft 479 kts 189°
2026-04-30 05:50 37.00906 120.44898 33066 ft 480 kts 189°
2026-04-30 05:51 36.94253 120.43917 33069 ft 479 kts 189°
2026-04-30 05:51 36.87678 120.42950 33081 ft 477 kts 189°
2026-04-30 05:52 36.81081 120.41981 33091 ft 477 kts 189°
2026-04-30 05:52 36.74502 120.41016 33091 ft 477 kts 189°
2026-04-30 05:53 36.67901 120.40046 33090 ft 478 kts 189°
2026-04-30 05:53 36.61298 120.39076 33091 ft 477 kts 189°
2026-04-30 05:54 36.54736 120.38133 33087 ft 478 kts 188°
2026-04-30 05:54 36.48064 120.37701 33099 ft 478 kts 184°
2026-04-30 05:55 36.41475 120.37463 33098 ft 477 kts 184°
2026-04-30 05:55 36.34829 120.37219 33103 ft 477 kts 184°
2026-04-30 05:56 36.28212 120.36624 33100 ft 475 kts 190°
2026-04-30 05:56 36.21728 120.35193 33104 ft 474 kts 195°
2026-04-30 05:57 36.15275 120.33507 33095 ft 474 kts 194°
2026-04-30 05:57 36.08819 120.31836 33103 ft 473 kts 194°
2026-04-30 05:58 36.02542 120.29687 33099 ft 468 kts 202°
2026-04-30 05:58 35.96593 120.26420 33102 ft 466 kts 211°
2026-04-30 05:59 35.91148 120.22143 33108 ft 463 kts 219°
2026-04-30 05:59 35.86194 120.17183 33112 ft 462 kts 222°
2026-04-30 06:00 35.81166 120.12035 33112 ft 477 kts 222°
2026-04-30 06:00 35.76001 120.06765 33113 ft 488 kts 222°
2026-04-30 06:01 35.70759 120.01437 33118 ft 490 kts 222°
2026-04-30 06:01 35.65471 119.96072 33117 ft 491 kts 223°
2026-04-30 06:02 35.60242 119.90771 33115 ft 490 kts 223°
2026-04-30 06:02 35.54964 119.85430 33125 ft 489 kts 223°
2026-04-30 06:03 35.49736 119.80147 33122 ft 489 kts 223°
2026-04-30 06:03 35.44490 119.74857 33123 ft 488 kts 223°
2026-04-30 06:04 35.39287 119.69569 33127 ft 488 kts 223°
2026-04-30 06:05 35.31467 119.61577 33124 ft 487 kts 223°
2026-04-30 06:05 35.26295 119.56301 33135 ft 487 kts 224°
2026-04-30 06:06 35.21079 119.50990 33122 ft 488 kts 224°
2026-04-30 06:06 35.15864 119.45689 33135 ft 489 kts 224°
2026-04-30 06:07 35.10633 119.40384 33129 ft 488 kts 224°
2026-04-30 06:07 35.05412 119.35096 33128 ft 490 kts 224°
2026-04-30 06:08 35.00149 119.29776 33127 ft 492 kts 223°
2026-04-30 06:08 34.94915 119.24493 33123 ft 492 kts 223°
2026-04-30 06:09 34.89634 119.19172 33134 ft 491 kts 223°
2026-04-30 06:09 34.84406 119.13909 33135 ft 492 kts 223°
2026-04-30 06:10 34.79107 119.08587 33138 ft 491 kts 224°
2026-04-30 06:10 34.73873 119.03333 33130 ft 492 kts 224°
2026-04-30 06:11 34.68593 118.98045 33136 ft 492 kts 224°
2026-04-30 06:11 34.62994 118.93190 33141 ft 497 kts 215°
2026-04-30 06:12 34.56733 118.89530 33138 ft 504 kts 205°
2026-04-30 06:12 34.49961 118.87206 33132 ft 510 kts 195°
2026-04-30 06:13 34.42905 118.85966 33141 ft 511 kts 192°
2026-04-30 06:13 34.35887 118.84858 33138 ft 511 kts 192°
2026-04-30 06:14 34.28856 118.83732 33138 ft 509 kts 192°
2026-04-30 06:14 34.21815 118.82587 33138 ft 509 kts 192°
2026-04-30 06:15 34.14841 118.81453 33142 ft 507 kts 192°
2026-04-30 06:15 34.07860 118.80326 33144 ft 507 kts 192°
2026-04-30 06:16 34.00845 118.79211 33143 ft 506 kts 192°
2026-04-30 06:16 33.93868 118.78099 33143 ft 505 kts 193°
2026-04-30 06:17 33.86905 118.76990 33148 ft 505 kts 193°
2026-04-30 06:17 33.79963 118.75881 33143 ft 504 kts 193°
2026-04-30 06:18 33.72969 118.74763 33142 ft 504 kts 193°
2026-04-30 06:18 33.66048 118.73656 33151 ft 502 kts 193°
2026-04-30 06:19 33.59142 118.72547 33147 ft 502 kts 193°
2026-04-30 06:19 33.52231 118.71441 33158 ft 502 kts 193°
2026-04-30 06:20 33.45307 118.70338 33158 ft 502 kts 194°
2026-04-30 06:20 33.38415 118.69237 33156 ft 500 kts 194°
2026-04-30 06:21 33.31523 118.68155 33162 ft 500 kts 192°
2026-04-30 06:21 33.24457 118.68319 33149 ft 515 kts 178°
2026-04-30 06:22 33.17523 118.70504 33160 ft 525 kts 164°
2026-04-30 06:22 33.11021 118.74713 33158 ft 537 kts 151°
2026-04-30 06:23 33.04910 118.79835 33166 ft 536 kts 150°
2026-04-30 06:23 32.98822 118.84951 33163 ft 536 kts 150°
2026-04-30 06:24 32.92721 118.90004 33170 ft 537 kts 151°
2026-04-30 06:24 32.86605 118.95049 33175 ft 523 kts 151°
2026-04-30 06:24 32.83653 118.97491 33038 ft 511 kts 152°
2026-04-30 06:25 32.80745 118.99906 32665 ft 507 kts 152°
2026-04-30 06:25 32.77867 119.02294 32239 ft 507 kts 151°
2026-04-30 06:25 32.74989 119.04675 31816 ft 508 kts 151°
2026-04-30 06:25 32.72079 119.07085 31384 ft 510 kts 151°
2026-04-30 06:26 32.69207 119.09467 30954 ft 507 kts 151°
2026-04-30 06:26 32.66321 119.11861 30511 ft 504 kts 151°
2026-04-30 06:26 32.63461 119.14230 30065 ft 501 kts 151°
2026-04-30 06:26 32.60605 119.16591 29612 ft 497 kts 151°
2026-04-30 06:27 32.57771 119.18935 29149 ft 494 kts 151°
2026-04-30 06:27 32.54974 119.21246 28702 ft 492 kts 151°
2026-04-30 06:27 32.52178 119.23550 28245 ft 489 kts 151°
2026-04-30 06:27 32.49381 119.25855 27786 ft 486 kts 151°
2026-04-30 06:28 32.46627 119.28124 27314 ft 483 kts 151°
2026-04-30 06:28 32.43899 119.30368 26862 ft 481 kts 151°
2026-04-30 06:28 32.41161 119.32616 26391 ft 479 kts 151°
2026-04-30 06:28 32.38426 119.34866 25902 ft 476 kts 152°
2026-04-30 06:29 32.35693 119.37110 25448 ft 474 kts 151°
2026-04-30 06:29 32.33015 119.39307 25188 ft 466 kts 151°
2026-04-30 06:29 32.30350 119.41492 25187 ft 467 kts 151°
2026-04-30 06:29 32.27699 119.43660 25167 ft 468 kts 152°
2026-04-30 06:30 32.25013 119.45861 25155 ft 468 kts 152°
2026-04-30 06:30 32.22340 119.48048 25176 ft 466 kts 152°
2026-04-30 06:30 32.19685 119.50214 25174 ft 468 kts 152°
2026-04-30 06:30 32.16996 119.52410 25165 ft 467 kts 152°
2026-04-30 06:31 32.14351 119.54572 25162 ft 465 kts 153°
2026-04-30 06:31 32.11701 119.56737 25171 ft 463 kts 153°
2026-04-30 06:31 32.09027 119.58910 25172 ft 463 kts 153°
2026-04-30 06:31 32.06399 119.61051 25175 ft 462 kts 153°
2026-04-30 06:32 32.03767 119.63193 25107 ft 460 kts 153°
2026-04-30 06:32 32.01137 119.65329 24850 ft 458 kts 154°
2026-04-30 06:32 31.98488 119.67482 24597 ft 457 kts 154°
2026-04-30 06:32 31.95946 119.69666 24351 ft 461 kts 148°
2026-04-30 06:33 31.93598 119.72279 24092 ft 468 kts 140°
2026-04-30 06:33 31.91563 119.75287 23865 ft 473 kts 132°
2026-04-30 06:33 31.89703 119.78494 23648 ft 472 kts 130°
2026-04-30 06:33 31.87906 119.81705 23390 ft 471 kts 130°
2026-04-30 06:34 31.86114 119.84899 23062 ft 468 kts 130°
2026-04-30 06:34 31.84320 119.88068 22705 ft 465 kts 130°
2026-04-30 06:34 31.82506 119.91235 22339 ft 462 kts 130°
2026-04-30 06:34 31.80730 119.94327 21999 ft 458 kts 129°
2026-04-30 06:35 31.78944 119.97428 21625 ft 455 kts 129°
2026-04-30 06:35 31.77184 120.00481 21245 ft 452 kts 129°
2026-04-30 06:35 31.75440 120.03500 20882 ft 448 kts 129°
2026-04-30 06:35 31.73691 120.06522 20631 ft 447 kts 129°
2026-04-30 06:36 31.71939 120.09547 20384 ft 445 kts 129°
2026-04-30 06:36 31.70211 120.12528 20147 ft 443 kts 129°
2026-04-30 06:36 31.68493 120.15489 19905 ft 440 kts 128°
2026-04-30 06:36 31.66773 120.18459 19793 ft 440 kts 129°
2026-04-30 06:37 31.65046 120.21437 19793 ft 440 kts 129°
2026-04-30 06:37 31.63324 120.24402 19790 ft 440 kts 129°
2026-04-30 06:37 31.61613 120.27341 19796 ft 440 kts 129°
2026-04-30 06:37 31.59929 120.30396 19785 ft 443 kts 124°
2026-04-30 06:38 31.58520 120.33576 19744 ft 447 kts 118°
2026-04-30 06:38 31.57367 120.36964 19513 ft 447 kts 113°
2026-04-30 06:38 31.56350 120.40413 19264 ft 446 kts 111°
2026-04-30 06:38 31.55380 120.43819 19010 ft 444 kts 111°
2026-04-30 06:39 31.54398 120.47244 18768 ft 442 kts 111°
2026-04-30 06:39 31.53408 120.50653 18527 ft 440 kts 111°
2026-04-30 06:39 31.52427 120.54000 18285 ft 437 kts 111°
2026-04-30 06:39 31.51433 120.57372 18032 ft 435 kts 111°
2026-04-30 06:40 31.50450 120.60692 17783 ft 433 kts 111°
2026-04-30 06:40 31.49462 120.64023 17531 ft 430 kts 111°
2026-04-30 06:40 31.48492 120.67284 17272 ft 428 kts 112°
2026-04-30 06:40 31.47512 120.70586 17016 ft 427 kts 112°
2026-04-30 06:41 31.46543 120.73837 16771 ft 424 kts 112°
2026-04-30 06:41 31.45566 120.77106 16518 ft 423 kts 112°
2026-04-30 06:41 31.44598 120.80332 16313 ft 421 kts 112°
2026-04-30 06:41 31.43599 120.83560 16291 ft 420 kts 113°
2026-04-30 06:42 31.42596 120.86766 16242 ft 422 kts 113°
2026-04-30 06:42 31.41593 120.89976 16033 ft 420 kts 113°
2026-04-30 06:42 31.40556 120.93153 15817 ft 415 kts 117°
2026-04-30 06:42 31.39204 120.96084 15564 ft 407 kts 127°
2026-04-30 06:43 31.37545 120.98694 15565 ft 404 kts 134°
2026-04-30 06:43 31.35752 121.01231 15579 ft 404 kts 135°
2026-04-30 06:43 31.33937 121.03743 15603 ft 405 kts 135°
2026-04-30 06:43 31.32117 121.06272 15605 ft 406 kts 135°
2026-04-30 06:44 31.30304 121.08809 15548 ft 406 kts 135°
2026-04-30 06:44 31.28492 121.11356 15180 ft 406 kts 134°
2026-04-30 06:44 31.26708 121.13876 14808 ft 403 kts 134°
2026-04-30 06:44 31.24935 121.16379 14442 ft 400 kts 134°
2026-04-30 06:45 31.23153 121.18899 14060 ft 397 kts 134°
2026-04-30 06:45 31.21393 121.21380 13698 ft 394 kts 133°
2026-04-30 06:45 31.19658 121.23829 13362 ft 391 kts 133°
2026-04-30 06:45 31.17941 121.26247 13063 ft 386 kts 133°
2026-04-30 06:46 31.16246 121.28641 12970 ft 375 kts 134°
2026-04-30 06:46 31.14608 121.30952 12933 ft 362 kts 133°
2026-04-30 06:46 31.13071 121.33195 12904 ft 352 kts 127°
2026-04-30 06:46 31.11945 121.35667 12848 ft 347 kts 113°
2026-04-30 06:47 31.11228 121.38356 12507 ft 347 kts 105°
2026-04-30 06:47 31.10632 121.41099 12282 ft 343 kts 104°
2026-04-30 06:47 31.10062 121.43779 12063 ft 339 kts 104°
2026-04-30 06:47 31.09491 121.46418 11859 ft 334 kts 105°
2026-04-30 06:48 31.08911 121.49007 11647 ft 331 kts 105°
2026-04-30 06:48 31.08320 121.51595 11414 ft 328 kts 105°
2026-04-30 06:48 31.07737 121.54148 11141 ft 327 kts 105°
2026-04-30 06:48 31.07147 121.56712 10861 ft 326 kts 105°
2026-04-30 06:49 31.06559 121.59252 10619 ft 323 kts 104°
2026-04-30 06:49 31.05980 121.61756 10373 ft 322 kts 104°
2026-04-30 06:49 31.05399 121.64271 10144 ft 320 kts 104°
2026-04-30 06:49 31.04820 121.66770 9866 ft 317 kts 104°
2026-04-30 06:50 31.04211 121.69218 9612 ft 315 kts 112°
2026-04-30 06:50 31.02949 121.71285 9365 ft 311 kts 145°
2026-04-30 06:50 31.01054 121.72376 9104 ft 303 kts 167°
2026-04-30 06:50 30.99024 121.72997 8852 ft 299 kts 170°
2026-04-30 06:51 30.97015 121.73579 8666 ft 295 kts 169°
2026-04-30 06:51 30.95028 121.74226 8339 ft 298 kts 167°
2026-04-30 06:51 30.93047 121.74925 8042 ft 299 kts 165°
2026-04-30 06:51 30.91062 121.75664 7819 ft 297 kts 165°
2026-04-30 06:52 30.89105 121.76402 7556 ft 296 kts 164°
2026-04-30 06:52 30.87151 121.77140 7294 ft 295 kts 164°
2026-04-30 06:52 30.85205 121.77877 7027 ft 294 kts 163°
2026-04-30 06:52 30.83262 121.78612 6779 ft 292 kts 163°
2026-04-30 06:53 30.81328 121.79340 6562 ft 290 kts 163°
2026-04-30 06:53 30.79413 121.80062 6309 ft 288 kts 163°
2026-04-30 06:53 30.77505 121.80777 6107 ft 286 kts 163°
2026-04-30 06:53 30.75624 121.81483 5935 ft 281 kts 162°
2026-04-30 06:54 30.73914 121.82574 5719 ft 278 kts 133°
2026-04-30 06:54 30.73017 121.84491 5540 ft 268 kts 96°
2026-04-30 06:54 30.73206 121.86542 5350 ft 253 kts 58°
2026-04-30 06:54 30.74344 121.87965 5166 ft 237 kts 21°
2026-04-30 06:55 30.75912 121.88359 4997 ft 226 kts 355°
2026-04-30 06:55 30.77416 121.87942 4796 ft 220 kts 332°
2026-04-30 06:55 30.78610 121.86865 4585 ft 217 kts 315°
2026-04-30 06:55 30.79737 121.85712 4359 ft 214 kts 330°
2026-04-30 06:56 30.81153 121.85242 4054 ft 217 kts
2026-04-30 06:56 30.82639 121.85557 3805 ft 218 kts 10°
2026-04-30 06:56 30.84127 121.85953 3565 ft 217 kts 10°
2026-04-30 06:56 30.85597 121.86355 3326 ft 216 kts 11°
2026-04-30 06:57 30.87063 121.86771 3063 ft 217 kts 12°
2026-04-30 06:57 30.88516 121.87199 2910 ft 212 kts 12°
2026-04-30 06:57 30.89923 121.87620 2744 ft 208 kts 12°
2026-04-30 06:57 30.91302 121.88036 2656 ft 201 kts 12°
2026-04-30 06:58 30.92653 121.88444 2564 ft 194 kts 12°
2026-04-30 06:58 30.93961 121.88841 2321 ft 196 kts 12°
2026-04-30 06:58 30.95296 121.89040 2042 ft 196 kts 356°
2026-04-30 06:58 30.96634 121.88829 1975 ft 186 kts 346°
2026-04-30 06:59 30.97844 121.88460 1965 ft 175 kts 342°
2026-04-30 06:59 30.98972 121.88055 1975 ft 161 kts 341°
2026-04-30 06:59 30.99992 121.87672 1962 ft 146 kts 341°
2026-04-30 06:59 31.00908 121.87324 1938 ft 135 kts 342°
2026-04-30 07:00 31.01810 121.86981 1950 ft 135 kts 341°
2026-04-30 07:00 31.02700 121.86644 1975 ft 135 kts 341°
2026-04-30 07:00 31.03605 121.86301 1868 ft 136 kts 342°
2026-04-30 07:00 31.04500 121.85962 1695 ft 135 kts 342°
2026-04-30 07:01 31.05402 121.85622 1526 ft 135 kts 343°
2026-04-30 07:01 31.06309 121.85278 1354 ft 135 kts 342°
2026-04-30 07:01 31.07199 121.84943 1179 ft 134 kts 341°
2026-04-30 07:01 31.08095 121.84606 1000 ft 134 kts 342°
2026-04-30 07:02 31.08976 121.84272 822 ft 134 kts 344°
2026-04-30 07:02 31.09881 121.83932 643 ft 133 kts 342°
2026-04-30 07:02 31.10761 121.83600 465 ft 133 kts 341°
2026-04-30 07:02 31.11651 121.83263 289 ft 133 kts 341°
2026-04-30 07:03 31.12526 121.82932 114 ft 132 kts 343°
2026-04-30 07:03 31.13384 121.82617 32 ft 116 kts 345°
2026-04-30 07:03 31.13998 121.82375 32 ft 68 kts 345°
2026-04-30 07:03 31.14296 121.82249 32 ft 29 kts 329°
2026-04-30 07:04 31.14425 121.82117 32 ft 17 kts 316°
2026-04-30 07:04 31.14450 121.82089 32 ft 4 kts 317°
2026-04-30 07:04 31.14484 121.82052 32 ft 8 kts 315°
2026-04-30 07:04 31.14536 121.81991 32 ft 12 kts 319°
2026-04-30 07:05 31.14741 121.81889 32 ft 18 kts 342°
2026-04-30 07:05 31.14875 121.81840 33 ft 21 kts 342°
2026-04-30 07:05 31.14963 121.81797 32 ft 11 kts 313°
2026-04-30 07:06 31.14967 121.81695 33 ft 14 kts 254°
2026-04-30 07:06 31.14931 121.81565 33 ft 18 kts 252°
2026-04-30 07:06 31.14890 121.81418 34 ft 14 kts 250°
2026-04-30 07:06 31.14809 121.81369 34 ft 16 kts 169°
2026-04-30 07:07 31.14694 121.81411 34 ft 14 kts 162°
2026-04-30 07:07 31.14614 121.81413 35 ft 13 kts 216°
2026-04-30 07:07 31.14576 121.81307 34 ft 16 kts 253°
2026-04-30 07:07 31.14539 121.81169 34 ft 19 kts 252°
2026-04-30 07:08 31.14493 121.81004 33 ft 22 kts 253°
2026-04-30 07:08 31.14441 121.80818 33 ft 25 kts 253°
2026-04-30 07:08 31.14384 121.80617 33 ft 27 kts 252°
2026-04-30 07:08 31.14324 121.80403 33 ft 27 kts 251°
2026-04-30 07:09 31.14267 121.80196 33 ft 26 kts 251°
2026-04-30 07:09 31.14213 121.80001 33 ft 17 kts 253°
2026-04-30 07:09 31.14202 121.79908 33 ft 11 kts 293°
2026-04-30 07:09 31.14269 121.79857 33 ft 12 kts 341°
2026-04-30 07:10 31.14352 121.79826 33 ft 13 kts 343°
2026-04-30 07:10 31.14444 121.79796 33 ft 14 kts 346°
2026-04-30 07:10 31.14539 121.79764 33 ft 8 kts 342°
2026-04-30 07:10 31.14579 121.79771 33 ft 6 kts 46°
2026-04-30 07:11 31.14601 121.79829 32 ft 5 kts 73°
2026-04-30 07:11 31.14609 121.79858 32 ft 0 kts 71°